Regional Weather Roundup
Issued by NWS

Home | Current Version | Previous Version | Text Only | Print | Product List | Glossary On
Versions: 1 2 3 4 5 6 7 8 9 10 11 12 13 14 15 16 17 18 19 20 21 22 23 24 25 26 27 28 29 30 31 32 33 34 35 36 37 38 39 40 41 42 43 44 45 46 47 48 49 50
000
ASUS44 KLUB 290601
RWRTX
WEST TEXAS WEATHER ROUNDUP
NATIONAL WEATHER SERVICE LUBBOCK TX
100 AM CDT WED MAR 29 2017

NOTE: "FAIR" INDICATES FEW OR NO CLOUDS BELOW 12,000 FEET WITH NO
SIGNIFICANT WEATHER AND/OR OBSTRUCTIONS TO VISIBILITY.

TXZ004-006>008-010-012-014-016-OKZ002-290700-
TEXAS PANHANDLE/OKLAHOMA PANHANDLE

CITY           SKY/WX    TMP DP  RH WIND       PRES   REMARKS
AMARILLO       CLOUDY    44  44 100 NE24G31   29.71F
BORGER         LGT RAIN  46  46 100 N12       29.79F FOG
CANADIAN       LGT RAIN  51  49  96 NW6       29.79F
DALHART        CLOUDY    44  44 100 N31G38    29.77F FOG
DUMAS          CLOUDY    43  42  97 NE24      29.76F
GUYMON         CLOUDY    45  45 100 N13       29.85R
HEREFORD       CLOUDY    46  46  99 NE23G31   29.72R
PERRYTON       CLOUDY    47  46  96 N15       29.81S VSB 1
$$

TXZ026-029-035-045-048-290700-
SOUTHERN PANHANDLE/SOUTH PLAINS/ROLLING PLAINS

CITY           SKY/WX    TMP DP  RH WIND       PRES   REMARKS
CHILDRESS      HVY RAIN  53  51  93 NE10      29.80R FOG
SEMINOLE       CLEAR     49  37  63 SW9       29.75S
LUBBOCK        CLOUDY    52  48  86 NE15      29.69F
SNYDER         CLOUDY    56  48  74 N8        29.67F
$$

TXZ052-054-060>062-072-078-127-140-154-169-290700-
PERMIAN BASIN/CONCHO VALLEY/BIG COUNTRY/EDWARDS PLATEAU

CITY           SKY/WX    TMP DP  RH WIND       PRES   REMARKS
ABILENE        RAIN      56  56 100 E6        29.77F
MIDLAND        CLEAR     56  36  47 W12       29.75S
ODESSA           N/A     56  33  42 MISG      29.76S
SAN ANGELO     CLOUDY    56  50  81 SW8       29.73R
SWEETWATER     CLOUDY    56  56 100 NE9       29.65F
WINK             N/A    N/A N/A N/A MISG      29.75R
$$

TXZ055-058-074-075-080-082-290700-
FAR WEST/SOUTHWEST MOUNTAINS/TRANS PECOS

CITY           SKY/WX    TMP DP  RH WIND       PRES   REMARKS
ALPINE         CLEAR     53  22  29 W16       29.92R
DRYDEN           N/A     54  43  66 CALM      29.78R
EL PASO        PTCLDY    56  29  35 W13G23    29.86R
FORT STOCKTON  CLEAR     60  25  26 W18       29.79R
GUADALUPE PASS CLOUDY    45  29  53 W24       29.83R
MARFA          CLEAR     44  21  40 W7        29.91R
PECOS          CLEAR     53  29  39 CALM      29.78R
PRESIDIO       FAIR      63  23  21 W13G22    29.85R
$$

TXZ014-016-019-021>030-083-290700
TEXAS TECH WEST TEXAS MESONET/TEXAS PANHANDLE/NORTHERN SOUTH PLAINS

CITY           SKY/WX    TMP DP  RH WIND       PRES   REMARKS
ABERNATHY 5ENE   N/A     50  48  92 N13       29.74F
AMARILLO 9NNE    N/A     45  45 100 N26       29.73F
AMARILLO 7SSE    N/A     44  43  95 N18       29.72S
AMHERST 1NE      N/A     48  46  93 NE14      29.67F
BOOTLEG 11WNW    N/A     43  42  96 N14       29.77R
CANADIAN 6E    LGT RAIN  49  48  96 NW7       29.77S
CLARENDON 2WSW LGT RAIN  47  45  93 N20       29.75F
$$

TXZ033>036-039>041-045>048-290700
TEXAS TECH WEST TEXAS MESONET/SOUTH PLAINS

CITY           SKY/WX    TMP DP  RH WIND       PRES   REMARKS
AIKEN 3WSW       N/A     48  47  95 NE15      29.77R
ANDREWS 2NE      N/A     51  33  49 SW7       29.75F
ANTON 6SSW       N/A     49  47  93 NE12      29.71R
BROWNFIELD 2S    N/A     56  47  70 NW6       29.73R
$$

TXZ031-032-036>038-042>044-290700-
TEXAS TECH WEST TEXAS MESONET/ROLLING PLAINS

CITY           SKY/WX    TMP DP  RH WIND       PRES   REMARKS
ASPERMONT 3NE  LGT RAIN  55  53  95 SE1       29.71F
LK A HENRY 1NW   N/A     55  50  84 NE7       29.69F
$$

TXZ052-054-060>062-072-078-127-140-154-169-290700-
TEXAS TECH WEST TEXAS MESONET/PERMIAN BASIN/
CONCHO VALLEY/BIG COUNTRY/EDWARDS PLATEAU

CITY           SKY/WX    TMP DP  RH WIND       PRES   REMARKS
SAN ANGELO 7NW   N/A     55  50  83 SW6       29.74R
$$

TXZ055-058-074-075-080-082-290700-
TEXAS TECH WEST TEXAS MESONET/FAR WEST/SOUTHWEST MOUNTAINS/TRANS PECOS

CITY           SKY/WX    TMP DP  RH WIND       PRES   REMARKS
$$




USA.gov is the U.S. government's official web portal to all federal, state and local government web resources and services.